Weather observations for the past three days for
Rowan County Airport
Metric (Imperial)
Date Time (edt) Wind (kph) Vis. (km) Weather Sky Cond. Temperature (ºC) Relative Humidity Wind Chill (°C) Heat Index (°C) Pressure Precipitation (cm)
Air Dwpt 6 hour altimeter (cm) sea level (mb) 1 hr 3 hr 6 hr
Max. Min.
05 21:15 S 7 16.09 Fair CLR 20 8.1 46% 76.07 0.0
05 20:55 S 7 16.09 Fair CLR 20.5 8.1 45% 76.05 0.0
05 20:35 S 11 16.09 Fair CLR 21 8.1 44% 76.05 0.0
05 20:15 S 9 16.09 Fair CLR 21.9 8 41% 76.05 0.0
05 19:55 S 11 16.09 Fair CLR 22.9 7.7 27 22.9 38% 76.02 0.0
05 19:35 SW 17 G 28 16.09 Fair CLR 23.9 6.7 33% 25 76.02 0.0
05 19:15 SW 22 G 28 16.09 Fair CLR 24.1 6.7 33% 25 76 0.0
05 18:55 SW 17 G 28 16.09 Partly Cloudy SCT080 24.1 7 33% 25 76 0.0
05 18:35 SW 19 G 39 16.09 Partly Cloudy SCT080 24.5 6.6 32% 25 76.02 0.0
05 18:15 S 15 G 30 16.09 Partly Cloudy SCT080 25 6.7 31% 25 76.02 0.0
05 17:55 S 20 G 31 16.09 Partly Cloudy SCT075 25.8 7.3 31% 26 76.02 0.0
05 17:35 S 22 G 31 16.09 Partly Cloudy SCT075 25.5 7 31% 26 76.05 0.0
05 17:15 S 20 G 35 16.09 Partly Cloudy SCT075 26.8 7.6 30% 26 76.05 0.0
05 16:55 SW 19 G 28 16.09 Partly Cloudy SCT075 26.3 7.2 30% 26 76.05 0.0
05 16:35 S 24 G 31 16.09 Mostly Cloudy BKN075 26 7 30% 26 76.07 0.0
05 16:15 S 22 G 31 16.09 Partly Cloudy SCT075 25.4 8.1 33% 26 76.07 0.0
05 15:35 S 26 G 33 16.09 Fair CLR 25.7 7 30% 26 76.1 0.0
05 15:15 S 24 G 33 16.09 Partly Cloudy SCT080 26 7.4 31% 26 76.12 0.0
05 14:55 SW 11 G 35 16.09 Fair CLR 25.2 6.8 31% 25 76.15 0.0
05 14:35 S 24 G 31 16.09 Partly Cloudy SCT070 25.8 7.5 31% 26 76.2 0.0
05 14:15 S 24 G 31 16.09 Partly Cloudy SCT070 24.8 7.4 33% 25 76.2 0.0
05 13:55 SW 22 G 30 16.09 Fair CLR 25.2 7.9 25.2 14.8 33% 26 76.2 0.0
05 13:35 S 24 G 33 16.09 Fair CLR 24.9 7 32% 25 76.2 0.0
05 13:15 SW 20 G 28 16.09 Fair CLR 24.7 7.3 33% 25 76.23 0.0
05 12:55 SW 15 G 26 16.09 Fair CLR 24.2 7.2 34% 25 76.25 0.0
05 12:35 SW 17 G 33 16.09 Partly Cloudy SCT060 23.7 7.4 35% 76.25 0.0
05 12:15 SW 15 G 26 16.09 Fair CLR 23.4 8.6 39% 76.28 0.0
05 11:55 SW 19 16.09 Fair CLR 23.4 9.8 42% 76.28 0.0
05 11:35 SW 15 16.09 Fair CLR 22.8 9.8 44% 76.28 0.0
05 11:15 SW 19 16.09 Fair CLR 21.9 9.6 46% 76.28 0.0
05 10:55 SW 17 16.09 Fair CLR 21.2 10 49% 76.28 0.0
05 10:35 SW 17 16.09 Fair CLR 20.8 10.1 51% 76.28 0.0
05 10:15 SW 17 16.09 Fair CLR 20.1 10 52% 76.28 0.0
05 09:55 SW 19 16.09 Fair CLR 19.3 10.2 56% 76.28 0.0
05 09:35 SW 15 16.09 Fair CLR 18.9 10.5 58% 76.28 0.0
05 09:15 SW 19 G 28 16.09 Fair CLR 17.8 10.5 63% 76.28 0.0
05 08:55 SW 15 G 26 16.09 Fair CLR 17 10.5 66% 76.28 0.0
05 08:35 W 13 G 28 16.09 Fair CLR 16.2 10.1 67% 76.28 0.0
05 08:15 SW 13 16.09 Fair CLR 15.5 9.8 69% 76.25 0.0
05 07:55 SW 7 16.09 Fair CLR 14.8 9.5 15.8 10.5 71% 76.25 0.0
05 07:35 SW 13 G 26 16.09 Fair CLR 14.1 9.1 72% 76.23 0.0
05 07:15 SW 13 16.09 Fair CLR 13.3 9 75% 76.23 0.0
05 06:55 SW 7 16.09 Fair CLR 12.7 8.5 76% 76.23 0.0
05 06:35 SW 7 16.09 Fair CLR 12.4 8.1 75% 76.23 0.0
05 06:15 SW 9 16.09 Fair CLR 12.2 8 76% 76.23 0.0
05 05:55 Calm 16.09 Fair CLR 11.7 7.9 78% 76.2 0.0
05 05:35 Calm 16.09 Fair CLR 10.9 7.6 80% 76.2 0.0
05 05:15 Calm 16.09 Fair CLR 12.1 7.5 74% 76.2 0.0
05 04:55 SW 6 16.09 Fair CLR 13.6 7.6 67% 76.17 0.0
05 04:35 SW 7 16.09 Fair CLR 14 7.5 65% 76.15 0.0
05 04:15 SW 9 16.09 Fair CLR 14 7.5 65% 76.15 0.0
05 03:55 S 7 16.09 Fair CLR 13.8 7.2 65% 76.12 0.0
05 03:35 S 9 16.09 Fair CLR 14.1 7.2 63% 76.12 0.0
05 03:15 S 9 16.09 Fair CLR 14.6 7.1 61% 76.12 0.0
05 02:55 S 9 16.09 Fair CLR 15 6.8 58% 76.12 0.0
05 02:35 S 11 16.09 Fair CLR 15.4 6.5 56% 76.12 0.0
05 02:15 S 13 16.09 Fair CLR 15.7 6.1 53% 76.12 0.0
05 01:55 S 15 16.09 Fair CLR 15.7 5.4 22 15 51% 76.12 0.0
05 01:35 S 13 16.09 Fair CLR 15.5 4.9 49% 76.12 0.0
05 01:15 S 15 16.09 Fair CLR 15.8 4.7 48% 76.12 0.0
05 00:55 S 13 16.09 Fair CLR 15.6 4.2 47% 76.15 0.0
05 00:35 S 11 16.09 Fair CLR 16.5 4 44% 76.12 0.0
05 00:15 S 11 16.09 Fair CLR 16.5 3.8 43% 76.15 0.0
04 23:55 S 11 16.09 Fair CLR 16.6 3.5 42% 76.15 0.0
04 23:35 S 6 16.09 Fair CLR 16.6 3.6 42% 76.15 0.0
04 23:15 S 9 16.09 Fair CLR 16.6 3.7 42% 76.15 0.0
04 22:55 S 11 16.09 Fair CLR 17.1 3.8 41% 76.15 0.0
04 22:35 S 7 16.09 Fair CLR 17.4 3.8 41% 76.12 0.0
04 22:15 S 7 16.09 Fair CLR 17.9 3.7 39% 76.12 0.0
04 21:55 S 6 16.09 Fair CLR 17.4 3.8 41% 76.12 0.0
04 21:35 S 7 16.09 Fair CLR 17.4 3.6 40% 76.12 0.0
04 21:15 S 6 16.09 Fair CLR 17.4 3.8 41% 76.1 0.0
04 20:55 Calm 16.09 Fair CLR 16.7 4.9 46% 76.07 0.0
04 20:35 Calm 16.09 Fair CLR 19.5 3.1 34% 76.07 0.0
04 20:15 S 6 16.09 Fair CLR 20.8 2.6 30% 76.05 0.0
04 19:55 S 7 16.09 Fair CLR 22 2.7 25.9 22 28% 76.05 0.0
04 19:35 S 11 16.09 Fair CLR 23.2 2.7 26% 76.02 0.0
04 19:15 S 15 16.09 Fair CLR 24 2.1 24% 25 76.02 0.0
04 18:55 S 13 16.09 Fair CLR 24.4 1.6 22% 25 76 0.0
04 18:35 S 19 16.09 Fair CLR 25 1.6 22% 25 76.02 0.0
04 18:15 S 15 16.09 Fair CLR 25.2 2.7 23% 25 76.02 0.0
04 17:55 S 13 16.09 Fair CLR 25.3 3.5 24% 25 76.02 0.0
04 17:35 SW 15 16.09 Fair CLR 25.3 3.4 24% 25 76.02 0.0
04 17:15 SW 15 16.09 Fair CLR 25.8 3.9 24% 26 76.02 0.0
04 16:55 S 13 16.09 Fair CLR 25.6 3.5 24% 25 76.05 0.0
04 16:35 SW 9 16.09 Fair CLR 25.5 3.7 24% 25 76.05 0.0
04 16:15 S 13 16.09 Fair CLR 25.4 3 23% 25 76.07 0.0
04 15:55 SW 6 16.09 Fair CLR 25 3.1 24% 25 76.07 0.0
04 15:35 S 11 16.09 Fair CLR 24.7 2.5 24% 25 76.1 0.0
04 15:15 SW 13 16.09 Fair CLR 24.6 3 25% 25 76.12 0.0
04 14:55 SW 9 16.09 Fair CLR 24.5 3.8 26% 25 76.12 0.0
04 14:35 W 9 16.09 Fair CLR 23.9 3.5 27% 25 76.15 0.0
04 14:15 W 9 16.09 Fair CLR 23.2 3.2 27% 76.17 0.0
04 13:55 SW 6 16.09 Fair CLR 23.9 3.7 23.9 7.6 27% 25 76.17 0.0
04 13:35 W 7 16.09 Fair CLR 23.2 3.5 28% 76.17 0.0
04 13:15 S 6 16.09 Fair CLR 22.8 3.9 29% 76.2 0.0
04 12:55 W 6 16.09 Fair CLR 22.2 3.9 30% 76.23 0.0
04 12:35 Calm 16.09 Fair CLR 21.5 3.8 31% 76.25 0.0
04 12:15 S 9 16.09 Fair CLR 21.1 3.4 31% 76.3 0.0
04 11:55 W 13 16.09 Fair CLR 20.9 3.9 33% 76.33 0.0
04 11:35 W 13 16.09 Fair CLR 20.3 3.7 34% 76.35 0.0
04 11:15 W 9 16.09 Fair CLR 19.8 4.3 36% 76.33 0.0
04 10:55 SW 9 16.09 Fair CLR 19.4 5.9 41% 76.33 0.0
04 10:35 NW 7 16.09 Fair CLR 18 5.8 45% 76.33 0.0
04 10:15 Calm 16.09 Fair CLR 17 6.6 51% 76.33 0.0
04 09:55 Calm 16.09 Fair CLR 16 6.7 54% 76.33 0.0
04 09:35 Calm 16.09 Fair CLR 15.1 6.5 57% 76.3 0.0
04 09:15 W 6 16.09 Fair CLR 13.4 6.4 63% 76.33 0.0
04 08:55 Calm 16.09 Fair CLR 12.3 6.2 67% 76.33 0.0
04 08:35 Calm 16.09 Fair CLR 11.4 5.8 69% 76.33 0.0
04 08:15 Calm 16.09 Fair CLR 8.8 5.8 82% 76.3 0.0
04 07:55 Calm 16.09 Fair CLR 7.4 5.6 7.4 3.5 88% 76.3 0.0
04 07:35 Calm 11.27 Fair CLR 5.8 4.6 92% 76.28 0.0
04 07:15 Calm 16.09 Fair CLR 4.7 3.9 95% 76.3 0.0
04 06:55 Calm 4.83 Fog/Mist CLR 4 3.4 96% 76.3 0.0
04 06:35 Calm 8.05 Fog/Mist CLR 3.5 2.5 93% 76.3 0.0
04 06:15 Calm 16.09 Fair CLR 4.3 3.2 93% 76.28 0.0
04 05:55 Calm 11.27 Fair CLR 4 3.2 95% 76.3 0.0
04 05:15 Calm 16.09 Fair CLR 4.9 4 94% 76.3 0.0
04 04:55 Calm 16.09 Fair CLR 4.7 3.5 92% 76.3 0.0
04 04:35 Calm 16.09 Fair CLR 6 3.8 86% 76.28 0.0
04 04:15 Calm 16.09 Fair CLR 5.7 4 89% 76.28 0.0
04 03:55 Calm 16.09 Fair CLR 6.3 4.6 89% 76.25 0.0
04 03:35 Calm 16.09 Fair CLR 5.8 4.1 89% 76.25 0.0
04 03:15 Calm 16.09 Fair CLR 6.1 4.3 88% 76.25 0.0
04 02:55 Calm 16.09 Fair CLR 6.2 4.3 88% 76.28 0.0
04 02:35 Calm 16.09 Fair CLR 6.5 4.4 87% 76.28 0.0
04 02:15 S 6 16.09 Fair CLR 6.7 4.3 85% 76.28 0.0
04 01:55 S 6 16.09 Fair CLR 7.4 4.6 15.2 7.2 83% 76.28 0.0
04 01:35 S 6 16.09 Fair CLR 8.4 4.4 76% 76.28 0.0
04 01:15 S 9 16.09 Fair CLR 11.9 3.7 58% 76.28 0.0
04 00:55 S 11 16.09 Fair CLR 11.5 3.7 59% 76.28 0.0
04 00:35 S 9 16.09 Fair CLR 11.4 3.5 59% 76.28 0.0
04 00:15 S 11 16.09 Fair CLR 11 3.5 60% 76.28 0.0
03 23:55 S 9 16.09 Fair CLR 9.8 3.3 64% 9 76.3 0.0
03 23:35 S 7 16.09 Fair CLR 7.8 3.5 75% 7 76.3 0.0
03 23:15 S 6 16.09 Fair CLR 7.4 3.5 77% 76.3 0.0
03 22:55 Calm 16.09 Fair CLR 8.1 4 76% 76.3 0.0
03 22:35 Calm 16.09 Fair CLR 8.3 3.7 73% 76.28 0.0
03 22:15 Calm 16.09 Fair CLR 8.8 3.5 70% 76.28 0.0
03 21:55 Calm 16.09 Fair CLR 9.9 3 63% 76.25 0.0
03 21:35 Calm 16.09 Fair CLR 9.7 3.3 65% 76.25 0.0
03 21:15 Calm 16.09 Fair CLR 11.1 3.1 58% 76.23 0.0
03 20:55 Calm 16.09 Fair CLR 11.4 3.2 57% 76.2 0.0
03 20:35 Calm 16.09 Fair CLR 13.2 2.5 49% 76.2 0.0
03 20:15 S 6 16.09 Fair CLR 13.9 2.3 46% 76.2 0.0
03 19:55 Calm 16.09 Fair CLR 15.7 2.1 19.3 15.7 40% 76.17 0.0
03 19:35 Calm 16.09 Fair CLR 17.6 0.5 32% 76.17 0.0
03 19:15 SW 7 16.09 Fair CLR 18.3 0.2 30% 76.17 0.0
03 18:55 S 7 16.09 Fair CLR 18.6 -0.2 28% 76.2 0.0
03 18:35 Calm 16.09 Fair CLR 18.8 0.2 29% 76.2 0.0
03 18:15 W 15 16.09 Fair CLR 19 -0.3 27% 76.2 0.0
03 17:55 W 13 16.09 Fair CLR 19.2 -0.9 26% 76.23 0.0
03 17:35 W 7 16.09 Fair CLR 19 -1.2 26% 76.25 0.0
03 17:15 NW 13 16.09 Fair CLR 18.8 -1.2 26% 76.25 0.0
03 16:55 W 11 16.09 Fair CLR 18.8 -1.5 25% 76.25 0.0
03 16:35 W 19 G 26 16.09 Fair CLR 18.9 -1.1 26% 76.28 0.0
03 16:15 W 9 16.09 Fair CLR 18.1 -2 26% 76.28 0.0
03 15:55 SW 15 16.09 Fair CLR 18.6 -2.2 24% 76.33 0.0
03 15:35 W 11 16.09 Fair CLR 17.9 -1.8 26% 76.33 0.0
03 15:15 SW 9 16.09 Fair CLR 17.9 -1.7 26% 76.35 0.0
03 14:35 W 9 16.09 Fair CLR 17.4 -1.5 28% 76.4 0.0
03 14:15 SW 15 16.09 Fair CLR 16.8 -1.8 28% 76.43 0.0
03 13:55 Calm 16.09 Fair CLR 16.1 -2.2 16.1 5.3 29% 76.43 0.0
03 13:35 Calm 16.09 Fair CLR 15.6 -2.1 30% 76.45 0.0
03 13:15 NW 9 G 28 16.09 Fair CLR 15.3 -1.9 31% 76.48 0.0
03 12:55 W 9 16.09 Fair CLR 15.2 -0.9 33% 76.5 0.0
03 12:35 NW 19 16.09 Fair CLR 14.8 -1.5 33% 76.5 0.0
03 12:15 NW 11 G 17 16.09 Fair CLR 14.3 -1.9 33% 76.53 0.0
03 11:55 NW 17 16.09 Fair CLR 13.8 -2.2 33% 76.53 0.0
03 11:35 NW 11 16.09 Fair CLR 14 -2.2 33% 76.56 0.0
03 11:15 N 28 G 35 16.09 Fair CLR 13.3 -3.6 31% 76.56 0.0
03 10:55 N 20 16.09 Fair CLR 12.9 -2.5 34% 76.58 0.0
03 10:35 NW 13 16.09 Fair CLR 12.7 -1.8 37% 76.56 0.0
03 10:15 NW 20 G 30 16.09 Fair CLR 12.5 -1.8 37% 76.56 0.0
03 09:55 N 19 G 30 16.09 Fair CLR 12 -2.1 38% 76.56 0.0
03 09:35 NW 22 G 33 16.09 Fair CLR 11.5 -1.7 40% 76.53 0.0
03 09:15 NW 13 16.09 Fair CLR 11 0.3 48% 76.53 0.0
03 08:35 NW 7 16.09 Fair CLR 9.1 2.1 62% 8 76.53 0.0
03 08:15 NW 6 16.09 Fair CLR 7.4 2 69% 76.5 0.0
03 07:55 Calm 16.09 Fair CLR 5.1 2.6 5.1 0.5 84% 76.5 0.0
03 07:35 Calm 16.09 Fair CLR 2.9 1.9 93% 76.5 0.0
03 07:15 Calm 16.09 Fair CLR 1.5 0.7 94% 76.48 0.0
03 06:55 Calm 16.09 Fair CLR 1.8 1.3 97% 76.45 0.0
03 06:35 Calm 16.09 Fair CLR 0.7 0.1 96% 76.43 0.0
03 06:15 Calm 11.27 Fair CLR 0.7 0.1 96% 76.4 0.0
03 05:55 Calm 16.09 Fair CLR 1.1 0.5 96% 76.38 0.0
03 05:35 Calm 16.09 Fair CLR 0.7 0 95% 76.35 0.0
03 05:15 Calm 16.09 Fair CLR 1.8 1.3 97% 76.35 0.0
03 04:55 Calm 16.09 Fair CLR 1.3 0.7 96% 76.33 0.0
03 04:35 Calm 16.09 Fair CLR 1.6 1 96% 76.33 0.0
03 04:15 Calm 11.27 Fair CLR 1.7 1.1 96% 76.33 0.0
03 03:55 Calm 16.09 Fair CLR 2.2 1.5 95% 76.3 0.0
03 03:35 Calm 16.09 Fair CLR 2.3 1.6 95% 76.3 0.0
03 03:15 Calm 16.09 Fair CLR 2.3 1.5 95% 76.28 0.0
03 02:55 Calm 16.09 Fair CLR 2.6 1.8 95% 76.25 0.0
03 02:35 Calm 16.09 Fair CLR 3.2 2.4 95% 76.25 0.0
03 02:15 Calm 16.09 Fair CLR 2.9 2 94% 76.23 0.0
03 01:55 Calm 16.09 Fair CLR 3.2 2.2 13 3.2 93% 76.23 0.0
03 01:35 Calm 16.09 Fair CLR 3.9 3.2 95% 76.23 0.0
03 01:15 Calm 16.09 Fair CLR 4.2 3.2 93% 76.23 0.0
03 00:55 Calm 16.09 Fair CLR 4 3 93% 76.23 0.0
03 00:35 Calm 16.09 Fair CLR 4 2.8 92% 76.23 0.0
03 00:15 Calm 16.09 Fair CLR 5 3.5 90% 76.2 0.0
02 23:55 Calm 16.09 Fair CLR 4.8 3.5 91% 76.2 0.0
02 23:35 Calm 16.09 Partly Cloudy SCT110 5.6 4 90% 76.17 0.0
02 23:15 Calm 16.09 Partly Cloudy SCT110 5.6 3.7 88% 76.17 0.0
02 22:55 Calm 16.09 Fair CLR 6.9 3.7 80% 76.17 0.0
02 22:35 Calm 16.09 Fair CLR 6.8 3.7 81% 76.17 0.0
02 22:15 Calm 16.09 Fair CLR 7.6 4.7 82% 76.15 0.0
02 21:55 Calm 16.09 Fair CLR 7.1 4.5 84% 76.12 0.0
02 21:35 Calm 16.09 Fair CLR 8 4.3 78% 76.1 0.0
Date Time (edt) Wind (kph) Vis. (km) Weather Sky Cond. Air Dwpt Max. Min. Relative Humidity Wind Chill (°C) Heat Index (°C) altimeter (cm) sea level (mb) 1 hr 3 hr 6 hr
6 hour
Temperature (ºC) Pressure Precipitation (cm)